Preview of NWS' New Version of Forecast
This preview is not operational and should not be used for support decisions.

Regional Weather Roundup (RWR)

Issued by National Weather Service (NWS)

                            
000
ASUS43 KDMX 240206
RWRIA 

WEATHER ROUNDUP FOR IOWA
NATIONAL WEATHER SERVICE DES MOINES IA
900 PM CDT THU MAY 23 2019

NOTE: "FAIR" INDICATES FEW OR NO CLOUDS BELOW 12,000 FEET WITH NO
SIGNIFICANT WEATHER AND/OR OBSTRUCTIONS TO VISIBILITY.

* - THESE STATIONS ARE NOT NWS STATIONS...THUS NOT UNDER NWS
QUALITY CONTROL.  THEY ALSO DO NOT REPORT WEATHER SUCH 
AS PRECIPITATION OR FOG.  

IAZ001>003-012>014-020>022-031>034-043>046-240300-
   NORTHWEST IOWA
  
CITY           SKY/WX    TMP DP  RH WIND       PRES   REMARKS
CARROLL *      CLOUDY    59  55  88 NE5       30.02F                  
CHEROKEE *     LGT RAIN  55  54  96 N5        30.05R                  
DENISON *      MOCLDY    57  55  94 E5        30.03F                  
LE MARS *      LGT RAIN  55  55 100 NE6       30.05R                  
SHELDON *      LGT RAIN  55  55 100 N5        30.06R                  
SIOUX CITY     CLOUDY    55  51  86 NE13      30.00F                  
SPENCER        LGT RAIN  57  50  77 NE9       30.05R                  
STORM LAKE *   CLOUDY    57  50  77 E7        30.02R                  
$$
 
IAZ055>058-069>071-079>083-090>094-240300-
   SOUTHWEST IOWA
  
CITY           SKY/WX    TMP DP  RH WIND       PRES   REMARKS
ATLANTIC *     MOCLDY    61  54  77 E5        29.99F                  
AUDUBON *      CLOUDY    57  54  88 CALM      30.03S                  
CLARINDA *     CLOUDY    66  52  59 E8        30.00F                  
COUNCIL BLFS * CLOUDY    59  57  94 E12G17    29.97S                  
CRESTON *      CLOUDY    63  52  67 E9        30.01F                  
HARLAN  *      MOCLDY    59  54  82 E7        30.00F                  
LAMONI         CLOUDY    67  53  61 E7        30.01F                  
RED OAK *      CLOUDY    64  50  59 E10       29.98F                  
SHENANDOAH *   MOCLDY    66  50  55 E12G20    29.95F                  
$$
 
IAZ047>049-059>061-072>074-084-240300-
   CENTRAL IOWA
  
CITY           SKY/WX    TMP DP  RH WIND       PRES   REMARKS
AMES           CLOUDY    61  50  67 CALM      30.04R                  
ANKENY *       CLOUDY    64  52  63 E6        30.04S                  
BOONE *        CLOUDY    61  54  77 VRB5      30.03R                  
CHARITON *     MOCLDY    64  54  68 E7        30.03F                  
DES MOINES     CLOUDY    66  48  52 E5        30.02F                  
GRINNELL*      CLOUDY    63  53  69 E5        30.05F                  
KNOXVILLE *    CLOUDY    64  50  59 E6        30.04F                  
MARSHALLTOWN   CLOUDY    63  51  65 E8        30.02F                  
NEWTON *       CLOUDY    64  54  68 E6        30.04F                  
PELLA *        CLOUDY    64  51  62 CALM      30.06F                  
PERRY *        FAIR      63  50  63 CALM      30.03F                  
$$
 
IAZ004>006-015-016-023>025-035-036-240300-
   NORTH CENTRAL IOWA
  
CITY           SKY/WX    TMP DP  RH WIND       PRES   REMARKS
ALGONA *       CLOUDY    57  54  88 NE8G17    30.03R                  
CLARION *      CLOUDY    61  50  67 E7        30.04R                  
ESTHERVILLE    LGT RAIN  55  47  74 N8        30.04R                  
FORT DODGE *   CLOUDY    58  53  84 E5        30.04R                  
MASON CITY     CLOUDY    58  52  80 NE9       30.05F                  
FOREST CITY *  FAIR      59  50  72 N7        30.04F                  
IOWA FALLS *   FAIR      62  51  67 NE5       30.05R                  
$$

IAZ007>011-017>019-026>030-037>042-050>054-066-240300-
   NORTHEAST IOWA
  
CITY           SKY/WX    TMP DP  RH WIND       PRES   REMARKS
CEDAR RAPIDS   FAIR      65  51  60 NE5       30.06F                  
CHARLES CITY * FAIR      59  50  72 NE13      30.02F                  
CLINTON *      FAIR      63  56  78 W6        30.09R                  
DECORAH *      FAIR      59  46  63 N6        30.08F                  
DUBUQUE        FAIR      62  49  62 N9        30.09F                  
MONTICELLO *   FAIR      66  52  59 N5        30.09R                  
OELWEIN *      FAIR      61  52  72 N9        30.07F                  
WATERLOO       FAIR      63  49  60 E9        30.03F                  
$$
 
IAZ064-065-067-068-078-240300-
   EAST CENTRAL IOWA
  
CITY           SKY/WX    TMP DP  RH WIND       PRES   REMARKS
DAVENPORT      FAIR      67  53  61 CALM      30.08F                  
IOWA CITY      FAIR      66  54  65 CALM      30.08F                  
MT. PLEASANT * CLOUDY    68  57  68 CALM      30.08S                  
MUSCATINE *    FAIR      66  57  72 W3        30.09R                  
QUAD CITIES    FAIR      66  56  70 CALM      30.07R                  
$$
 
IAZ062-063-075>077-085>089-095>099-240300-
   SOUTHEAST IOWA
  
CITY           SKY/WX    TMP DP  RH WIND       PRES   REMARKS
BURLINGTON     CLOUDY    66  57  72 N5        30.08S                  
FAIRFIELD *    CLOUDY    66  57  72 NE5       30.07F                  
FORT MADISON * PTCLDY    66  59  77 CALM      30.08F                  
KEOKUK *       MOCLDY    64  59  82 NE5       30.06F                  
OSKALOOSA *    FAIR      65  54  67 E6        30.06F                  
CENTERVILLE *  CLOUDY    66  57  72 NE7       30.05F                  
OTTUMWA        CLOUDY    67  52  58 NE6       30.05F                  
WASHINGTON *   PTCLDY    66  57  72 NE3       30.09S                  
$$

ABBREVIATIONS USED IN REMARKS
   TC - TEMPERATURES IN CELSIUS
  WCI - WIND CHILL INDEX
   HX - HEAT INDEX
  VSB - VISIBILITY  
$$